Location: Eastlake (historical)
(39.0077°N, 122.6678°W)
Time: 12:26:12
(UTC+00:00)

NOSS 3-2 (A) - Pass Details

Date: 25 November 2020
Orbit: 789 x 1419 km, 63.4° (Epoch: 22 January)

Event Time Altitude Azimuth Distance (km) Brightness Sun altitude
Exits shadow 12:43:29 36° 330° (NNW) 1,895 4.7 -27.1°
Maximum altitude 12:47:13 86° 57° (ENE) 1,330 4.1 -26.4°
Drops below altitude 10° 12:55:52 10° 147° (SSE) 3,480 6.9 -24.7°
Sets 12:58:51 0° 148° (SSE) 4,474 7.5 -24.2°
